Volver al catálogo

STARLINK-33784

ActivoComunicacionesVLEO
NORAD 63453·PAYLOAD·🇺🇸 United States

Lanzado Apr 4, 2025 desde Vandenberg Space Force Base

Loading…

Próximos Pases (próximas 24 horas)

TLE

ActualizadoSource: CelesTrak SupGP

Época: Sep 15, 2026, 02:38 UTC

1 63453C 25069W   26258.11020833  .00065936  00000+0  19486-2 0  2580
2 63453  53.1584 341.0963 0001193  82.0554  61.1187 15.34349428    11

Sigue STARLINK-33784 en tiempo real con AllMySat

Download on the App Store